Location: Borkenes
(68.7830°N, 16.1830°E)
Time: 19:29:40
(UTC+01:00)

SR - All Passes

Search period start: 12 December 2019 00:00
Search period end: 22 December 2019 00:00
Orbit: 573 x 882 km, 66.7° (Epoch: 12 December)

Date Brightness Start Highest point End Pass type
(mag) Time Alt. Az. Time Alt. Az. Time Alt. Az.
12 Dec - 07:53:16 10° ESE 07:54:28 11° ESE 07:55:41 10° E visible
12 Dec - 09:30:04 10° S 09:34:52 27° SE 09:39:46 10° ENE daylight
12 Dec - 11:10:29 10° SW 11:16:08 53° SSE 11:21:55 10° ENE daylight
12 Dec - 12:52:08 10° WSW 12:58:01 73° S 13:03:58 10° E daylight
12 Dec - 14:34:10 10° W 14:40:04 67° SSW 14:45:55 10° ESE visible
12 Dec - 16:16:11 10° WNW 16:21:46 42° SW 16:27:12 10° SSE visible
12 Dec - 17:58:35 10° WNW 18:02:43 20° WSW 18:06:46 10° SSW visible
13 Dec - 08:41:29 10° SSE 08:45:39 21° ESE 08:49:54 10° ENE visible
13 Dec - 10:21:11 10° SSW 10:26:39 43° SE 10:32:16 10° ENE daylight
13 Dec - 12:02:32 10° WSW 12:08:23 68° SSE 12:14:18 10° E daylight
13 Dec - 13:44:30 10° W 13:50:26 72° S 13:56:20 10° ESE daylight
13 Dec - 15:26:32 10° WNW 15:32:17 51° SSW 15:37:56 10° SE visible
13 Dec - 17:08:42 10° WNW 17:13:32 26° WSW 17:18:16 10° S visible
14 Dec - 07:53:25 10° SE 07:56:34 15° ESE 07:59:47 10° ENE visible
14 Dec - 09:32:04 10° SSW 09:37:16 35° SE 09:42:35 10° ENE daylight
14 Dec - 11:13:01 10° SW 11:18:47 61° SSE 11:24:38 10° ENE daylight
14 Dec - 12:54:50 10° W 13:00:45 74° S 13:06:41 10° E daylight
14 Dec - 14:36:53 10° WNW 14:42:45 60° SSW 14:48:31 10° SE visible
14 Dec - 16:18:58 10° WNW 16:24:15 34° SW 16:29:25 10° SSE visible
14 Dec - 18:01:48 10° WNW 18:04:55 15° WSW 18:07:59 10° SW visible
15 Dec - 07:06:48 10° ESE 07:07:36 10° E 07:08:24 10° E visible
15 Dec - 08:43:12 10° S 08:47:58 27° SE 08:52:50 10° ENE visible
15 Dec - 10:23:34 10° SW 10:29:13 52° SSE 10:35:00 10° ENE daylight
15 Dec - 12:05:12 10° WSW 12:11:06 73° S 12:17:02 10° E daylight
15 Dec - 13:47:13 10° W 13:53:09 68° SSW 13:58:59 10° ESE daylight
15 Dec - 15:29:16 10° WNW 15:34:51 43° SW 15:40:18 10° SSE visible
15 Dec - 17:11:38 10° WNW 17:15:50 20° WSW 17:19:56 10° SSW visible
16 Dec - 07:54:40 10° SSE 07:58:46 20° ESE 08:02:57 10° ENE visible
16 Dec - 09:34:17 10° SSW 09:39:45 43° SE 09:45:20 10° ENE daylight
16 Dec - 11:15:36 10° WSW 11:21:28 68° SSE 11:27:22 10° E daylight
16 Dec - 12:57:34 10° W 13:03:30 73° S 13:09:23 10° ESE daylight
16 Dec - 14:39:36 10° WNW 14:45:23 52° SSW 14:51:01 10° SE visible
16 Dec - 16:21:46 10° WNW 16:26:39 27° SW 16:31:24 10° S visible
16 Dec - 18:06:08 10° W 18:07:01 10° W 18:07:53 10° WSW visible
17 Dec - 07:06:38 10° SE 07:09:42 15° ESE 07:12:47 10° ENE visible
17 Dec - 08:45:11 10° SSW 08:50:22 34° SE 08:55:39 10° ENE visible
17 Dec - 10:26:04 10° SW 10:31:51 60° SSE 10:37:43 10° ENE daylight
17 Dec - 12:07:54 10° W 12:13:50 74° S 12:19:45 10° E daylight
17 Dec - 13:49:57 10° WNW 13:55:50 61° SSW 14:01:35 10° SE daylight
17 Dec - 15:32:02 10° WNW 15:37:20 35° SW 15:42:31 10° SSE visible
17 Dec - 17:14:49 10° WNW 17:18:02 15° WSW 17:21:12 10° SW visible
18 Dec - 07:56:20 10° S 08:01:04 26° ESE 08:05:54 10° ENE visible
18 Dec - 09:36:39 10° SW 09:42:19 51° SSE 09:48:03 10° ENE daylight
18 Dec - 11:18:16 10° WSW 11:24:11 72° S 11:30:06 10° E daylight
18 Dec - 13:00:17 10° W 13:06:13 68° SSW 13:12:03 10° ESE daylight
18 Dec - 14:42:20 10° WNW 14:47:57 44° SW 14:53:23 10° SSE visible
18 Dec - 16:24:41 10° WNW 16:28:57 21° WSW 16:33:06 10° SSW visible
19 Dec - 07:07:50 10° SSE 07:11:53 20° ESE 07:16:00 10° ENE visible
19 Dec - 08:47:23 10° SSW 08:52:50 42° SE 08:58:24 10° ENE visible
19 Dec - 10:28:40 10° WSW 10:34:32 67° SSE 10:40:26 10° E daylight
19 Dec - 12:10:38 10° W 12:16:34 73° S 12:22:27 10° ESE daylight
19 Dec - 13:52:40 10° WNW 13:58:28 53° SSW 14:04:06 10° SE daylight
19 Dec - 15:34:50 10° WNW 15:39:44 28° SW 15:44:32 10° S visible
19 Dec - 17:18:53 10° W 17:20:08 11° WSW 17:21:23 10° WSW visible
20 Dec - 06:19:52 10° SE 06:22:49 14° ESE 06:25:47 10° ENE visible
20 Dec - 07:58:18 10° SSW 08:03:27 33° SE 08:08:42 10° ENE visible
20 Dec - 09:39:09 10° SW 09:44:56 59° SSE 09:50:47 10° ENE daylight
20 Dec - 11:20:58 10° W 11:26:54 74° S 11:32:49 10° E daylight
20 Dec - 13:03:02 10° WNW 13:08:54 62° SSW 13:14:40 10° SE daylight
20 Dec - 14:45:06 10° WNW 14:50:26 35° SW 14:55:37 10° SSE visible
20 Dec - 16:27:50 10° WNW 16:31:10 16° WSW 16:34:25 10° SW visible
21 Dec - 07:09:29 10° S 07:14:10 26° ESE 07:18:57 10° ENE visible
21 Dec - 08:49:44 10° SW 08:55:23 50° SSE 09:01:08 10° ENE visible
21 Dec - 10:31:20 10° WSW 10:37:15 72° S 10:43:09 10° E daylight
21 Dec - 12:13:21 10° W 12:19:17 69° SSW 12:25:07 10° ESE daylight
21 Dec - 13:55:24 10° WNW 14:01:02 44° SW 14:06:29 10° SSE daylight
21 Dec - 15:37:44 10° WNW 15:42:04 21° WSW 15:46:16 10° SSW visible
